• In Schweiz
  • Länderverzeichnis
  • Für 7 Tage
  • Wassertemperatur
  • Satellitenkarten
  • Wetterkarte
  • Widgets
  • user-avatar
    Anmelden

    Stündliche Wetter Varyash-Bash

    Heute, 22 Juli, Sonntag

    Zeit Temperatur Niederschläge Wind Luftdruck Luftfeuchtigkeit
    00:00 +16°C° 0 mm 5 m/S 749 mmHg 80%
    01:00 +15°C° 0 mm 5 m/S 750 mmHg 78%
    02:00 +14°C° 0 mm 5 m/S 750 mmHg 78%
    03:00 +14°C° 0 mm 5 m/S 750 mmHg 78%
    04:00 +13°C° 0 mm 4 m/S 750 mmHg 82%
    05:00 +14°C° 0 mm 5 m/S 750 mmHg 82%
    06:00 +14°C° 0 mm 5 m/S 751 mmHg 81%
    07:00 +15°C° 0 mm 6 m/S 751 mmHg 80%
    08:00 +16°C° 0 mm 6 m/S 751 mmHg 77%
    09:00 +17°C° 0 mm 6 m/S 751 mmHg 74%
    10:00 +19°C° 0 mm 6 m/S 751 mmHg 71%
    11:00 +20°C° 0 mm 7 m/S 751 mmHg 68%
    12:00 +20°C° 0 mm 7 m/S 751 mmHg 65%
    13:00 +21°C° 0 mm 7 m/S 751 mmHg 62%
    14:00 +21°C° 0 mm 6 m/S 751 mmHg 62%
    15:00 +21°C° 0 mm 6 m/S 751 mmHg 61%
    16:00 +21°C° 0 mm 6 m/S 751 mmHg 61%
    17:00 +21°C° 0 mm 5 m/S 751 mmHg 65%
    18:00 +20°C° 0 mm 4 m/S 751 mmHg 70%
    19:00 +20°C° 0 mm 4 m/S 752 mmHg 74%
    20:00 +18°C° 0 mm 4 m/S 752 mmHg 75%
    21:00 +17°C° 0 mm 4 m/S 752 mmHg 77%
    22:00 +14°C° 0 mm 4 m/S 752 mmHg 78%
    23:00 +14°C° 0 mm 4 m/S 752 mmHg 78%

    Morgen, 23 Juli, Montag

    Zeit Temperatur Niederschläge Wind Luftdruck Luftfeuchtigkeit
    00:00 +13°C° 0 mm 4 m/S 753 mmHg 78%
    01:00 +12°C° 0 mm 3 m/S 753 mmHg 78%
    02:00 +12°C° 0 mm 3 m/S 753 mmHg 79%
    03:00 +11°C° 0 mm 3 m/S 753 mmHg 81%
    04:00 +11°C° 0 mm 3 m/S 754 mmHg 83%
    05:00 +12°C° 0 mm 3 m/S 754 mmHg 81%
    06:00 +13°C° 0 mm 3 m/S 754 mmHg 80%
    07:00 +14°C° 0 mm 3 m/S 754 mmHg 78%
    08:00 +16°C° 0 mm 3 m/S 755 mmHg 74%
    09:00 +18°C° 0 mm 4 m/S 755 mmHg 69%
    10:00 +19°C° 0 mm 4 m/S 755 mmHg 65%
    11:00 +20°C° 0 mm 4 m/S 755 mmHg 63%
    12:00 +21°C° 0 mm 4 m/S 754 mmHg 61%
    13:00 +21°C° 0 mm 4 m/S 754 mmHg 60%
    14:00 +22°C° 0 mm 4 m/S 754 mmHg 60%
    15:00 +22°C° 0 mm 4 m/S 754 mmHg 60%
    16:00 +22°C° 0 mm 4 m/S 754 mmHg 61%
    17:00 +22°C° 0 mm 3 m/S 754 mmHg 65%
    18:00 +22°C° 0 mm 3 m/S 754 mmHg 69%
    19:00 +21°C° 0 mm 2 m/S 754 mmHg 74%
    20:00 +19°C° 0 mm 2 m/S 754 mmHg 77%
    21:00 +18°C° 0 mm 2 m/S 754 mmHg 80%
    22:00 +16°C° 0 mm 1 m/S 754 mmHg 83%
    23:00 +16°C° 0 mm 1 m/S 754 mmHg 84%

    übermorgen, 24 Juli, Dienstag

    Zeit Temperatur Niederschläge Wind Luftdruck Luftfeuchtigkeit
    00:00 +15°C° 0 mm 1 m/S 754 mmHg 85%
    01:00 +15°C° 0 mm 1 m/S 754 mmHg 85%
    02:00 +15°C° 0 mm 1 m/S 755 mmHg 86%
    03:00 +14°C° 0 mm 1 m/S 755 mmHg 87%
    04:00 +14°C° 0 mm 1 m/S 755 mmHg 88%
    05:00 +15°C° 0 mm 1 m/S 755 mmHg 85%
    06:00 +18°C° 0 mm 1 m/S 755 mmHg 83%
    07:00 +19°C° 0 mm 1 m/S 755 mmHg 80%
    08:00 +21°C° 0 mm 1 m/S 756 mmHg 76%
    09:00 +21°C° 0 mm 2 m/S 756 mmHg 71%
    10:00 +24°C° 0 mm 2 m/S 756 mmHg 66%
    11:00 +25°C° 0 mm 2 m/S 756 mmHg 63%
    12:00 +26°C° 0 mm 2 m/S 756 mmHg 59%
    13:00 +27°C° 0 mm 2 m/S 755 mmHg 56%
    14:00 +28°C° 0 mm 2 m/S 755 mmHg 56%
    15:00 +28°C° 0 mm 2 m/S 755 mmHg 55%
    16:00 +28°C° 0 mm 2 m/S 755 mmHg 54%
    17:00 +28°C° 0 mm 2 m/S 755 mmHg 59%
    18:00 +27°C° 0 mm 2 m/S 755 mmHg 63%
    19:00 +26°C° 0 mm 1 m/S 755 mmHg 68%
    20:00 +24°C° 0 mm 1 m/S 755 mmHg 71%
    21:00 +23°C° 0 mm 1 m/S 755 mmHg 74%
    22:00 +21°C° 0 mm 1 m/S 756 mmHg 76%
    23:00 +21°C° 0 mm 1 m/S 756 mmHg 77%

    25 Juli, Mittwoch

    Zeit Temperatur Niederschläge Wind Luftdruck Luftfeuchtigkeit
    00:00 +20°C° 0 mm 1 m/S 756 mmHg 78%
    01:00 +20°C° 0 mm 1 m/S 756 mmHg 79%
    02:00 +19°C° 0 mm 1 m/S 756 mmHg 80%
    03:00 +19°C° 0 mm 1 m/S 756 mmHg 81%
    04:00 +18°C° 0 mm 1 m/S 756 mmHg 81%
    05:00 +19°C° 0 mm 1 m/S 756 mmHg 80%
    06:00 +20°C° 0 mm 1 m/S 757 mmHg 78%
    07:00 +21°C° 0 mm 1 m/S 757 mmHg 77%
    08:00 +23°C° 0 mm 2 m/S 757 mmHg 73%
    09:00 +25°C° 0 mm 2 m/S 757 mmHg 68%
    10:00 +26°C° 0 mm 2 m/S 757 mmHg 64%
    11:00 +27°C° 0 mm 2 m/S 757 mmHg 60%
    12:00 +28°C° 0 mm 3 m/S 757 mmHg 57%
    13:00 +29°C° 0 mm 3 m/S 757 mmHg 54%
    14:00 +29°C° 0 mm 3 m/S 756 mmHg 53%
    15:00 +30°C° 0 mm 3 m/S 756 mmHg 52%
    16:00 +30°C° 0 mm 3 m/S 756 mmHg 52%
    17:00 +29°C° 0 mm 2 m/S 756 mmHg 56%
    18:00 +28°C° 0 mm 2 m/S 756 mmHg 61%
    19:00 +27°C° 0 mm 2 m/S 756 mmHg 66%
    20:00 +26°C° 0 mm 1 m/S 756 mmHg 68%
    21:00 +24°C° 0 mm 1 m/S 756 mmHg 70%
    22:00 +23°C° 0 mm 1 m/S 756 mmHg 72%
    23:00 +22°C° 0 mm 1 m/S 757 mmHg 73%

    26 Juli, Donnerstag

    Zeit Temperatur Niederschläge Wind Luftdruck Luftfeuchtigkeit
    00:00 +22°C° 0 mm 1 m/S 757 mmHg 74%
    01:00 +21°C° 0 mm 1 m/S 757 mmHg 74%
    02:00 +21°C° 0 mm 1 m/S 757 mmHg 76%
    03:00 +20°C° 0 mm 1 m/S 757 mmHg 77%
    04:00 +20°C° 0 mm 1 m/S 757 mmHg 79%
    05:00 +21°C° 0 mm 1 m/S 757 mmHg 78%
    06:00 +22°C° 0 mm 1 m/S 758 mmHg 76%
    07:00 +23°C° 0 mm 1 m/S 758 mmHg 75%
    08:00 +24°C° 0 mm 1 m/S 758 mmHg 71%
    09:00 +26°C° 0 mm 2 m/S 758 mmHg 67%
    10:00 +28°C° 0 mm 2 m/S 758 mmHg 62%
    11:00 +28°C° 0 mm 2 m/S 758 mmHg 59%
    12:00 +29°C° 0 mm 2 m/S 758 mmHg 55%
    13:00 +30°C° 0 mm 2 m/S 758 mmHg 52%
    14:00 +30°C° 0 mm 2 m/S 758 mmHg 51%
    15:00 +30°C° 0 mm 2 m/S 757 mmHg 51%
    16:00 +31°C° 0 mm 2 m/S 757 mmHg 50%
    17:00 +29°C° 0 mm 2 m/S 757 mmHg 56%
    18:00 +28°C° 0 mm 2 m/S 757 mmHg 61%
    19:00 +27°C° 0 mm 2 m/S 757 mmHg 66%
    20:00 +26°C° 0 mm 1 m/S 757 mmHg 68%
    21:00 +25°C° 0 mm 1 m/S 757 mmHg 69%
    22:00 +23°C° 0 mm 1 m/S 757 mmHg 70%
    23:00 +23°C° 0 mm 1 m/S 757 mmHg 70%

    27 Juli, Freitag

    Zeit Temperatur Niederschläge Wind Luftdruck Luftfeuchtigkeit
    00:00 +23°C° 0 mm 1 m/S 757 mmHg 70%
    01:00 +23°C° 0 mm 1 m/S 758 mmHg 70%
    02:00 +22°C° 0 mm 1 m/S 758 mmHg 69%
    03:00 +22°C° 0 mm 1 m/S 758 mmHg 68%
    04:00 +22°C° 0 mm 1 m/S 758 mmHg 67%
    05:00 +22°C° 0 mm 1 m/S 758 mmHg 68%
    06:00 +23°C° 0 mm 1 m/S 758 mmHg 69%
    07:00 +23°C° 0 mm 1 m/S 758 mmHg 70%
    08:00 +24°C° 0 mm 1 m/S 758 mmHg 69%
    09:00 +25°C° 0 mm 2 m/S 758 mmHg 67%
    10:00 +26°C° 0 mm 2 m/S 758 mmHg 66%
    11:00 +27°C° 0 mm 2 m/S 758 mmHg 60%
    12:00 +29°C° 0 mm 2 m/S 758 mmHg 55%
    13:00 +30°C° 0 mm 2 m/S 758 mmHg 50%
    14:00 +30°C° 0 mm 2 m/S 757 mmHg 49%
    15:00 +31°C° 0 mm 2 m/S 757 mmHg 48%
    16:00 +31°C° 0 mm 2 m/S 757 mmHg 47%
    17:00 +30°C° 0 mm 2 m/S 757 mmHg 52%
    18:00 +29°C° 0 mm 2 m/S 757 mmHg 57%
    19:00 +28°C° 0 mm 2 m/S 757 mmHg 62%
    20:00 +26°C° 0 mm 1 m/S 757 mmHg 62%
    21:00 +25°C° 0 mm 1 m/S 757 mmHg 63%
    22:00 +23°C° 0 mm 1 m/S 757 mmHg 63%
    23:00 +23°C° 0 mm 1 m/S 757 mmHg 64%
    Mehr zeigen